This demonstration page uses our WeatherBlox Daily Observations layout. Learn more.

Left ArrowRight Arrow

41.86663, -103.66717

Hourly Observations for November 14, 2020

Temp ( °F °C ) Dew Point ( °F °C ) Humidity (%) Winds ( mph kmh ) Pressure ( in mb ) Visibility ( mi km ) Precip ( " mm )
12:53 am 00:53 Clear 47 8.3 26 -3.3 44 44 W 6 9 29.49 999 10 16 0.00 0.00
1:53 am 01:53 Clear 50 10 26 -3.3 39 39 undefined N/A 29.48 998 10 16 0.00 0.00
2:53 am 02:53 Clear 38 3.3 27 -2.8 65 65 NNE 8 13 29.49 999 10 16 0.00 0.00
3:53 am 03:53 Clear 39 3.9 27 -2.8 62 62 WNW 5 7 29.49 999 10 16 0.00 0.00
4:53 am 04:53 Clear 44 6.7 28 -2.2 53 53 WNW 7 11 29.48 998 10 16 0.00 0.00
5:53 am 05:53 Clear 45 7.2 30 -1.1 56 56 W 9 15 29.48 998 10 16 0.00 0.00
6:53 am 06:53 Sunny 45 7.2 29 -1.7 54 54 W 8 13 29.49 999 10 16 0.00 0.00
7:53 am 07:53 Mostly Sunny 48 8.9 29 -1.7 48 48 WSW 18 30 29.49 999 10 16 0.00 0.00
8:53 am 08:53 Sunny 49 9.4 25 -3.9 39 39 W 31 50 29.48 998 10 16 0.00 0.00
9:20 am 09:20 Mostly Cloudy with Haze 46 8 19 -7 34 34 W 46 74 29.54 1000 5 8 0.00 0.00
9:53 am 09:53 Mostly Cloudy with Haze 46 7.8 20 -6.7 35 35 W 35 56 29.56 1001 4 6 0.00 0.00
10:53 am 10:53 Hazy 47 8.3 19 -7.2 33 33 W 31 50 29.54 1000 4 6 0.00 0.00
11:53 am 11:53 Cloudy 39 3.9 26 -3.3 60 60 NW 31 50 29.67 1005 10 16 0.00 0.00
12:53 pm 12:53 Cloudy 40 4.4 22 -5.6 49 49 WNW 21 33 29.71 1006 10 16 0.00 0.00
1:53 pm 13:53 Mostly Cloudy 41 5 21 -6.1 45 45 NNW 22 35 29.71 1006 10 16 0.00 0.00
2:40 pm 14:40 Windy with Storms Likely 40 4.4 25 -3.9 55 55 WNW 30 48 29.80 1009 5 8 0.00 0.00
2:49 pm 14:49 Windy with Snow Likely 36 2 25 -4 65 65 NW 23 37 29.84 1010 3 5 0.01 0.25
2:53 pm 14:53 Cloudy with Light Snow 37 2.8 23 -5 57 57 NW 15 24 29.78 1009 4 6 0.01 0.25
3:05 pm 15:05 Mostly Cloudy with Nearby Thunderstorms 39 3.9 25 -3.9 57 57 W 12 19 29.81 1009 9 14 0.00 0.00
3:22 pm 15:22 Mostly Cloudy 37 3 25 -4 60 60 W 12 19 29.83 1010 10 16 0.00 0.00
3:53 pm 15:53 Cloudy with Light Rain 39 3.9 21 -6.1 48 48 NW 18 30 29.82 1010 10 16 0.00 0.00
4:53 pm 16:53 Mostly Clear 36 2.2 20 -6.7 52 52 WNW 16 26 29.85 1011 10 16 0.00 0.00
5:53 pm 17:53 Clear 35 1.7 18 -7.8 50 50 NNW 22 35 29.91 1013 10 16 0.00 0.00
6:53 pm 18:53 Mostly Cloudy 33 0.6 22 -5.6 64 64 WNW 12 19 29.96 1015 10 16 0.00 0.00
7:53 pm 19:53 Partly Cloudy 31 -0.6 22 -5.6 69 69 WNW 12 19 29.98 1015 10 16 0.00 0.00
8:53 pm 20:53 Clear 30 -1.1 21 -6.1 69 69 W 14 22 30.00 1016 10 16 0.00 0.00
9:53 pm 21:53 Clear 28 -2.2 20 -6.7 72 72 W 9 15 30.03 1017 10 16 0.00 0.00
10:53 pm 22:53 Clear 28 -2.2 18 -7.8 66 66 WNW 10 17 30.04 1017 10 16 0.00 0.00
11:53 pm 23:53 Clear 25 -3.9 15 -9.4 66 66 NW 8 13 30.10 1019 10 16 0.00 0.00

Powered by AerisWeather